Location: Noverd
(38.0910°N, 121.6877°W)
Time: 14:28:50
(UTC+00:00)

Envisat - Pass Details

Date: 18 April 2026
Orbit: 761 x 762 km, 98.4° (Epoch: 15 May)

Event Time Altitude Azimuth Distance (km) Brightness Sun altitude
Rises 09:29:09 0° 33° (NNE) 3,229 7.2 -37.3°
Reaches altitude 10° 09:32:22 10° 55° (NE) 2,297 6.1 -37.0°
Enters shadow 09:34:28 15° 79° (E) 1,953 5.4 -36.8°
